{"data":{"norad_id":65370,"intl_designator":"2025-190V","name":"STARLINK-34870","alt_names":[],"object_type":"PAYLOAD","status":"ACTIVE","operator":null,"country":"US","launch_date":"2025-08-28","launch_site_code":"AFETR","launch_vehicle":null,"mission":null,"orbit_class":"UNKNOWN","rcs_meters":null,"size_class":null,"mass_kg":null,"dimensions":null,"purposes":["comms"],"wikipedia_slug":null,"has_3d_model":false,"image_url":null,"decayed_at":null,"tle_current":{"epoch":"2026-09-20T11:51:16.124832Z","epoch_age_seconds":115432,"freshness":"FRESH","line1":"1 65370U 25190V   26263.49393663  .00025817  00000+0  77250-3 0  9996","line2":"2 65370  53.1606 341.7027 0001165  83.3126 276.8009 15.34404534 59137","mean_motion":15.34404534,"eccentricity":0.0001165,"inclination_deg":53.1606,"raan_deg":341.7027,"arg_perigee_deg":83.3126,"mean_anomaly_deg":276.8009,"bstar":0.0007725,"rev_number":5913,"period_min":93.847480771326,"perigee_km":461.89280791876,"apogee_km":463.48672055483,"semimajor_km":6840.8267642368,"source":"CELESTRAK","updated_at":"2026-09-21T09:00:35.579125Z"}}}